Year,Month,Day,Hour,Minute,Value (Times are PST for temperature in C)
2014,12,14,00,00,5.60
2014,12,14,00,01,5.60
2014,12,14,00,02,5.60
2014,12,14,00,03,5.60
2014,12,14,00,04,5.60
2014,12,14,00,05,5.60
2014,12,14,00,06,5.60
2014,12,14,00,07,5.60
2014,12,14,00,08,5.50
2014,12,14,00,09,5.50
2014,12,14,00,10,5.50
2014,12,14,00,11,5.50
2014,12,14,00,12,5.50
2014,12,14,00,13,5.50
2014,12,14,00,14,5.50
2014,12,14,00,15,5.50
2014,12,14,00,16,5.50
2014,12,14,00,17,5.40
2014,12,14,00,18,5.40
2014,12,14,00,19,5.40
2014,12,14,00,20,5.40
2014,12,14,00,21,5.40
2014,12,14,00,22,5.40
2014,12,14,00,23,5.40
2014,12,14,00,24,5.40
2014,12,14,00,25,5.40
2014,12,14,00,26,5.30
2014,12,14,00,27,5.30
2014,12,14,00,28,5.30
2014,12,14,00,29,5.30
2014,12,14,00,30,5.30
2014,12,14,00,31,5.30
2014,12,14,00,32,5.30
2014,12,14,00,33,5.30
2014,12,14,00,34,5.30
2014,12,14,00,35,5.30
2014,12,14,00,36,5.20
2014,12,14,00,37,5.20
2014,12,14,00,38,5.20
2014,12,14,00,39,5.20
2014,12,14,00,40,5.20
2014,12,14,00,41,5.20
2014,12,14,00,42,5.20
2014,12,14,00,43,5.20
2014,12,14,00,44,5.20
2014,12,14,00,45,5.20
2014,12,14,00,46,5.20
2014,12,14,00,47,5.20
2014,12,14,00,48,5.20
2014,12,14,00,49,5.20
2014,12,14,00,50,5.20
2014,12,14,00,51,5.20
2014,12,14,00,52,5.20
2014,12,14,00,53,5.20
2014,12,14,00,54,5.20
2014,12,14,00,55,5.20
2014,12,14,00,56,5.20
2014,12,14,00,57,5.20
2014,12,14,00,58,5.20
2014,12,14,00,59,5.20
2014,12,14,01,00,5.20
2014,12,14,01,01,5.20
2014,12,14,01,02,5.20
2014,12,14,01,03,5.20
2014,12,14,01,04,5.20
2014,12,14,01,05,5.20
2014,12,14,01,06,5.20
2014,12,14,01,07,5.20
2014,12,14,01,08,5.20
2014,12,14,01,09,5.20
2014,12,14,01,10,5.20
2014,12,14,01,11,5.20
2014,12,14,01,12,5.20
2014,12,14,01,13,5.20
2014,12,14,01,14,5.20
2014,12,14,01,15,5.20
2014,12,14,01,16,5.20
2014,12,14,01,17,5.20
2014,12,14,01,18,5.20
2014,12,14,01,19,5.20
2014,12,14,01,20,5.20
2014,12,14,01,21,5.20
2014,12,14,01,22,5.20
2014,12,14,01,23,5.20
2014,12,14,01,24,5.20
2014,12,14,01,25,5.20
2014,12,14,01,26,5.20
2014,12,14,01,27,5.20
2014,12,14,01,28,5.20
2014,12,14,01,29,5.20
2014,12,14,01,30,5.20
2014,12,14,01,31,5.20
2014,12,14,01,32,5.20
2014,12,14,01,33,5.20
2014,12,14,01,34,5.20
2014,12,14,01,35,5.20
2014,12,14,01,36,5.20
2014,12,14,01,37,5.20
2014,12,14,01,38,5.20
2014,12,14,01,39,5.20
2014,12,14,01,40,5.20
2014,12,14,01,41,5.20
2014,12,14,01,42,5.20
2014,12,14,01,43,5.20
2014,12,14,01,44,5.20
2014,12,14,01,45,5.20
2014,12,14,01,46,5.20
2014,12,14,01,47,5.20
2014,12,14,01,48,5.20
2014,12,14,01,49,5.20
2014,12,14,01,50,5.20
2014,12,14,01,51,5.20
2014,12,14,01,52,5.20
2014,12,14,01,53,5.20
2014,12,14,01,54,5.20
2014,12,14,01,55,5.20
2014,12,14,01,56,5.20
2014,12,14,01,57,5.20
2014,12,14,01,58,5.20
2014,12,14,01,59,5.20
2014,12,14,02,00,5.20
2014,12,14,02,01,5.20
2014,12,14,02,02,5.20
2014,12,14,02,03,5.20
2014,12,14,02,04,5.20
2014,12,14,02,05,5.20
2014,12,14,02,06,5.10
2014,12,14,02,07,5.10
2014,12,14,02,08,5.10
2014,12,14,02,09,5.10
2014,12,14,02,10,5.10
2014,12,14,02,11,5.10
2014,12,14,02,12,5.10
2014,12,14,02,13,5.10
2014,12,14,02,14,5.00
2014,12,14,02,15,5.00
2014,12,14,02,16,5.00
2014,12,14,02,17,5.00
2014,12,14,02,18,5.00
2014,12,14,02,19,5.00
2014,12,14,02,20,5.00
2014,12,14,02,21,5.00
2014,12,14,02,22,5.00
2014,12,14,02,23,5.00
2014,12,14,02,24,5.00
2014,12,14,02,25,5.00
2014,12,14,02,26,5.00
2014,12,14,02,27,5.00
2014,12,14,02,28,5.10
2014,12,14,02,29,5.10
2014,12,14,02,30,5.10
2014,12,14,02,31,5.10
2014,12,14,02,32,5.10
2014,12,14,02,33,5.10
2014,12,14,02,34,5.10
2014,12,14,02,35,5.10
2014,12,14,02,36,5.10
2014,12,14,02,37,5.10
2014,12,14,02,38,5.10
2014,12,14,02,39,5.10
2014,12,14,02,40,5.10
2014,12,14,02,41,5.10
2014,12,14,02,42,5.10
2014,12,14,02,43,5.10
2014,12,14,02,44,5.10
2014,12,14,02,45,5.10
2014,12,14,02,46,5.10
2014,12,14,02,47,5.10
2014,12,14,02,48,5.10
2014,12,14,02,49,5.10
2014,12,14,02,50,5.10
2014,12,14,02,51,5.10
2014,12,14,02,52,5.10
2014,12,14,02,53,5.10
2014,12,14,02,54,5.10
2014,12,14,02,55,5.10
2014,12,14,02,56,5.10
2014,12,14,02,57,5.10
2014,12,14,02,58,5.10
2014,12,14,02,59,5.10
2014,12,14,03,00,5.10
2014,12,14,03,01,5.00
2014,12,14,03,02,5.00
2014,12,14,03,03,5.00
2014,12,14,03,04,5.00
2014,12,14,03,05,5.00
2014,12,14,03,06,5.00
2014,12,14,03,07,5.00
2014,12,14,03,08,4.90
2014,12,14,03,09,4.90
2014,12,14,03,10,4.90
2014,12,14,03,11,4.90
2014,12,14,03,12,4.90
2014,12,14,03,13,4.90
2014,12,14,03,14,4.90
2014,12,14,03,15,4.90
2014,12,14,03,16,4.80
2014,12,14,03,17,4.80
2014,12,14,03,18,4.80
2014,12,14,03,19,4.80
2014,12,14,03,20,4.80
2014,12,14,03,21,4.80
2014,12,14,03,22,4.80
2014,12,14,03,23,4.80
2014,12,14,03,24,4.80
2014,12,14,03,25,4.80
2014,12,14,03,26,4.80
2014,12,14,03,27,4.80
2014,12,14,03,28,4.70
2014,12,14,03,29,4.70
2014,12,14,03,30,4.70
2014,12,14,03,31,4.70
2014,12,14,03,32,4.70
2014,12,14,03,33,4.70
2014,12,14,03,34,4.70
2014,12,14,03,35,4.70
2014,12,14,03,36,4.60
2014,12,14,03,37,4.60
2014,12,14,03,38,4.60
2014,12,14,03,39,4.60
2014,12,14,03,40,4.60
2014,12,14,03,41,4.60
2014,12,14,03,42,4.60
2014,12,14,03,43,4.50
2014,12,14,03,44,4.50
2014,12,14,03,45,4.50
2014,12,14,03,46,4.50
2014,12,14,03,47,4.50
2014,12,14,03,48,4.50
2014,12,14,03,49,4.50
2014,12,14,03,50,4.50
2014,12,14,03,51,4.50
2014,12,14,03,52,4.50
2014,12,14,03,53,4.50
2014,12,14,03,54,4.50
2014,12,14,03,55,4.50
2014,12,14,03,56,4.50
2014,12,14,03,57,4.50
2014,12,14,03,58,4.40
2014,12,14,03,59,4.40
2014,12,14,04,00,4.40
2014,12,14,04,01,4.40
2014,12,14,04,02,4.40
2014,12,14,04,03,4.30
2014,12,14,04,04,4.30
2014,12,14,04,05,4.30
2014,12,14,04,06,4.30
2014,12,14,04,07,4.30
2014,12,14,04,08,4.30
2014,12,14,04,09,4.20
2014,12,14,04,10,4.20
2014,12,14,04,11,4.20
2014,12,14,04,12,4.20
2014,12,14,04,13,4.20
2014,12,14,04,14,4.20
2014,12,14,04,15,4.10
2014,12,14,04,16,4.10
2014,12,14,04,17,4.10
2014,12,14,04,18,4.10
2014,12,14,04,19,4.10
2014,12,14,04,20,4.10
2014,12,14,04,21,4.10
2014,12,14,04,22,4.00
2014,12,14,04,23,4.00
2014,12,14,04,24,4.00
2014,12,14,04,25,4.00
2014,12,14,04,26,4.00
2014,12,14,04,27,4.00
2014,12,14,04,28,4.00
2014,12,14,04,29,4.00
2014,12,14,04,30,3.90
2014,12,14,04,31,3.90
2014,12,14,04,32,3.90
2014,12,14,04,33,3.90
2014,12,14,04,34,3.90
2014,12,14,04,35,3.90
2014,12,14,04,36,3.90
2014,12,14,04,37,3.90
2014,12,14,04,38,3.90
2014,12,14,04,39,3.80
2014,12,14,04,40,3.80
2014,12,14,04,41,3.80
2014,12,14,04,42,3.80
2014,12,14,04,43,3.80
2014,12,14,04,44,3.80
2014,12,14,04,45,3.80
2014,12,14,04,46,3.80
2014,12,14,04,47,3.80
2014,12,14,04,48,3.80
2014,12,14,04,49,3.80
2014,12,14,04,50,3.80
2014,12,14,04,51,3.80
2014,12,14,04,52,3.80
2014,12,14,04,53,3.80
2014,12,14,04,54,3.80
2014,12,14,04,55,3.80
2014,12,14,04,56,3.80
2014,12,14,04,57,3.80
2014,12,14,04,58,3.80
2014,12,14,04,59,3.80
2014,12,14,05,00,3.80
2014,12,14,05,01,3.80
2014,12,14,05,02,3.80
2014,12,14,05,03,3.80
2014,12,14,05,04,3.70
2014,12,14,05,05,3.70
2014,12,14,05,06,3.70
2014,12,14,05,07,3.70
2014,12,14,05,08,3.70
2014,12,14,05,09,3.70
2014,12,14,05,10,3.70
2014,12,14,05,11,3.70
2014,12,14,05,12,3.70
2014,12,14,05,13,3.60
2014,12,14,05,14,3.60
2014,12,14,05,15,3.60
2014,12,14,05,16,3.60
2014,12,14,05,17,3.60
2014,12,14,05,18,3.60
2014,12,14,05,19,3.60
2014,12,14,05,20,3.60
2014,12,14,05,21,3.60
2014,12,14,05,22,3.60
2014,12,14,05,23,3.60
2014,12,14,05,24,3.60
2014,12,14,05,25,3.60
2014,12,14,05,26,3.50
2014,12,14,05,27,3.50
2014,12,14,05,28,3.50
2014,12,14,05,29,3.50
2014,12,14,05,30,3.50
2014,12,14,05,31,3.50
2014,12,14,05,32,3.50
2014,12,14,05,33,3.40
2014,12,14,05,34,3.40
2014,12,14,05,35,3.40
2014,12,14,05,36,3.40
2014,12,14,05,37,3.40
2014,12,14,05,38,3.30
2014,12,14,05,39,3.30
2014,12,14,05,40,3.30
2014,12,14,05,41,3.30
2014,12,14,05,42,3.30
2014,12,14,05,43,3.30
2014,12,14,05,44,3.30
2014,12,14,05,45,3.30
2014,12,14,05,46,3.30
2014,12,14,05,47,3.30
2014,12,14,05,48,3.30
2014,12,14,05,49,3.30
2014,12,14,05,50,3.30
2014,12,14,05,51,3.30
2014,12,14,05,52,3.30
2014,12,14,05,53,3.30
2014,12,14,05,54,3.30
2014,12,14,05,55,3.30
2014,12,14,05,56,3.30
2014,12,14,05,57,3.20
2014,12,14,05,58,3.20
2014,12,14,05,59,3.20
2014,12,14,06,00,3.10
2014,12,14,06,01,3.10
2014,12,14,06,02,3.00
2014,12,14,06,03,3.00
2014,12,14,06,04,2.90
2014,12,14,06,05,2.90
2014,12,14,06,06,2.80
2014,12,14,06,07,2.80
2014,12,14,06,08,2.70
2014,12,14,06,09,2.70
2014,12,14,06,10,2.70
2014,12,14,06,11,2.60
2014,12,14,06,12,2.60
2014,12,14,06,13,2.60
2014,12,14,06,14,2.60
2014,12,14,06,15,2.50
2014,12,14,06,16,2.60
2014,12,14,06,17,2.60
2014,12,14,06,18,2.60
2014,12,14,06,19,2.70
2014,12,14,06,20,2.70
2014,12,14,06,21,2.70
2014,12,14,06,22,2.70
2014,12,14,06,23,2.70
2014,12,14,06,24,2.70
2014,12,14,06,25,2.70
2014,12,14,06,26,2.70
2014,12,14,06,27,2.70
2014,12,14,06,28,2.70
2014,12,14,06,29,2.70
2014,12,14,06,30,2.70
2014,12,14,06,31,2.70
2014,12,14,06,32,2.80
2014,12,14,06,33,2.80
2014,12,14,06,34,2.80
2014,12,14,06,35,2.80
2014,12,14,06,36,2.80
2014,12,14,06,37,2.80
2014,12,14,06,38,2.80
2014,12,14,06,39,2.70
2014,12,14,06,40,2.70
2014,12,14,06,41,2.70
2014,12,14,06,42,2.70
2014,12,14,06,43,2.70
2014,12,14,06,44,2.60
2014,12,14,06,45,2.60
2014,12,14,06,46,2.60
2014,12,14,06,47,2.60
2014,12,14,06,48,2.60
2014,12,14,06,49,2.50
2014,12,14,06,50,2.50
2014,12,14,06,51,2.50
2014,12,14,06,52,2.50
2014,12,14,06,53,2.40
2014,12,14,06,54,2.40
2014,12,14,06,55,2.40
2014,12,14,06,56,2.40
2014,12,14,06,57,2.40
2014,12,14,06,58,2.40
2014,12,14,06,59,2.40
2014,12,14,07,00,2.40
2014,12,14,07,01,2.40
2014,12,14,07,02,2.40
2014,12,14,07,03,2.30
2014,12,14,07,04,2.40
2014,12,14,07,05,2.40
2014,12,14,07,06,2.40
2014,12,14,07,07,2.30
2014,12,14,07,08,2.30
2014,12,14,07,09,2.30
2014,12,14,07,10,2.30
2014,12,14,07,11,2.30
2014,12,14,07,12,2.30
2014,12,14,07,13,2.30
2014,12,14,07,14,2.30
2014,12,14,07,15,2.30
2014,12,14,07,16,2.30
2014,12,14,07,17,2.30
2014,12,14,07,18,2.30
2014,12,14,07,19,2.30
2014,12,14,07,20,2.30
2014,12,14,07,21,2.30
2014,12,14,07,22,2.30
2014,12,14,07,23,2.30
2014,12,14,07,24,2.20
2014,12,14,07,25,2.20
2014,12,14,07,26,2.20
2014,12,14,07,27,2.20
2014,12,14,07,28,2.20
2014,12,14,07,29,2.20
2014,12,14,07,30,2.20
2014,12,14,07,31,2.20
2014,12,14,07,32,2.20
2014,12,14,07,33,2.20
2014,12,14,07,34,2.20
2014,12,14,07,35,2.20
2014,12,14,07,36,2.20
2014,12,14,07,37,2.10
2014,12,14,07,38,2.10
2014,12,14,07,39,2.10
2014,12,14,07,40,2.10
2014,12,14,07,41,2.10
2014,12,14,07,42,2.10
2014,12,14,07,43,2.10
2014,12,14,07,44,2.10
2014,12,14,07,45,2.10
2014,12,14,07,46,2.10
2014,12,14,07,47,2.10
2014,12,14,07,48,2.10
2014,12,14,07,49,2.10
2014,12,14,07,50,2.10
2014,12,14,07,51,2.10
2014,12,14,07,52,2.10
2014,12,14,07,53,2.10
2014,12,14,07,54,2.10
2014,12,14,07,55,2.10
2014,12,14,07,56,2.10
2014,12,14,07,57,2.10
2014,12,14,07,58,2.00
2014,12,14,07,59,2.00
2014,12,14,08,00,2.00
2014,12,14,08,01,1.90
2014,12,14,08,02,1.90
2014,12,14,08,03,1.90
2014,12,14,08,04,1.90
2014,12,14,08,05,1.80
2014,12,14,08,06,1.80
2014,12,14,08,07,1.80
2014,12,14,08,08,1.80
2014,12,14,08,09,1.80
2014,12,14,08,10,1.80
2014,12,14,08,11,1.80
2014,12,14,08,12,1.80
2014,12,14,08,13,1.80
2014,12,14,08,14,1.80
2014,12,14,08,15,1.80
2014,12,14,08,16,1.70
2014,12,14,08,17,1.70
2014,12,14,08,18,1.70
2014,12,14,08,19,1.70
2014,12,14,08,20,1.70
2014,12,14,08,21,1.70
2014,12,14,08,22,1.70
2014,12,14,08,23,1.70
2014,12,14,08,24,1.70
2014,12,14,08,25,1.70
2014,12,14,08,26,1.70
2014,12,14,08,27,1.70
2014,12,14,08,28,1.70
2014,12,14,08,29,1.70
2014,12,14,08,30,1.70
2014,12,14,08,31,1.80
2014,12,14,08,32,1.80
2014,12,14,08,33,1.80
2014,12,14,08,34,1.80
2014,12,14,08,35,1.80
2014,12,14,08,36,1.80
2014,12,14,08,37,1.80
2014,12,14,08,38,1.80
2014,12,14,08,39,1.80
2014,12,14,08,40,1.80
2014,12,14,08,41,1.80
2014,12,14,08,42,1.80
2014,12,14,08,43,1.90
2014,12,14,08,44,1.90
2014,12,14,08,45,1.90
2014,12,14,08,46,1.90
2014,12,14,08,47,1.90
2014,12,14,08,48,1.90
2014,12,14,08,49,1.90
2014,12,14,08,50,1.90
2014,12,14,08,51,1.90
2014,12,14,08,52,1.90
2014,12,14,08,53,1.90
2014,12,14,08,54,1.90
2014,12,14,08,55,1.90
2014,12,14,08,56,1.90
2014,12,14,08,57,2.00
2014,12,14,08,58,2.00
2014,12,14,08,59,2.00
2014,12,14,09,00,2.00
2014,12,14,09,01,2.00
2014,12,14,09,02,2.00
2014,12,14,09,03,2.00
2014,12,14,09,04,2.00
2014,12,14,09,05,2.00
2014,12,14,09,06,2.10
2014,12,14,09,07,2.10
2014,12,14,09,08,2.10
2014,12,14,09,09,2.10
2014,12,14,09,10,2.10
2014,12,14,09,11,2.10
2014,12,14,09,12,2.20
2014,12,14,09,13,2.20
2014,12,14,09,14,2.20
2014,12,14,09,15,2.20
2014,12,14,09,16,2.20
2014,12,14,09,17,2.20
2014,12,14,09,18,2.30
2014,12,14,09,19,2.30
2014,12,14,09,20,2.30
2014,12,14,09,21,2.30
2014,12,14,09,22,2.30
2014,12,14,09,23,2.30
2014,12,14,09,24,2.30
2014,12,14,09,25,2.30
2014,12,14,09,26,2.30
2014,12,14,09,27,2.30
2014,12,14,09,28,2.40
2014,12,14,09,29,2.40
2014,12,14,09,30,2.40
2014,12,14,09,31,2.40
2014,12,14,09,32,2.40
2014,12,14,09,33,2.40
2014,12,14,09,34,2.40
2014,12,14,09,35,2.50
2014,12,14,09,36,2.50
2014,12,14,09,37,2.50
2014,12,14,09,38,2.50
2014,12,14,09,39,2.60
2014,12,14,09,40,2.60
2014,12,14,09,41,2.60
2014,12,14,09,42,2.60
2014,12,14,09,43,2.60
2014,12,14,09,44,2.60
2014,12,14,09,45,2.70
2014,12,14,09,46,2.70
2014,12,14,09,47,2.70
2014,12,14,09,48,2.70
2014,12,14,09,49,2.70
2014,12,14,09,50,2.70
2014,12,14,09,51,2.80
2014,12,14,09,52,2.80
2014,12,14,09,53,2.80
2014,12,14,09,54,2.80
2014,12,14,09,55,2.80
2014,12,14,09,56,2.90
2014,12,14,09,57,2.90
2014,12,14,09,58,2.90
2014,12,14,09,59,2.90
2014,12,14,10,00,3.00
2014,12,14,10,01,3.00
2014,12,14,10,02,3.10
2014,12,14,10,03,3.10
2014,12,14,10,04,3.10
2014,12,14,10,05,3.20
2014,12,14,10,06,3.20
2014,12,14,10,07,3.20
2014,12,14,10,08,3.30
2014,12,14,10,09,3.30
2014,12,14,10,10,3.30
2014,12,14,10,11,3.40
2014,12,14,10,12,3.40
2014,12,14,10,13,3.40
2014,12,14,10,14,3.50
2014,12,14,10,15,3.50
2014,12,14,10,16,3.50
2014,12,14,10,17,3.60
2014,12,14,10,18,3.60
2014,12,14,10,19,3.60
2014,12,14,10,20,3.60
2014,12,14,10,21,3.70
2014,12,14,10,22,3.70
2014,12,14,10,23,3.70
2014,12,14,10,24,3.80
2014,12,14,10,25,3.80
2014,12,14,10,26,3.80
2014,12,14,10,27,3.80
2014,12,14,10,28,3.80
2014,12,14,10,29,3.90
2014,12,14,10,30,3.90
2014,12,14,10,31,3.90
2014,12,14,10,32,3.90
2014,12,14,10,33,4.00
2014,12,14,10,34,4.00
2014,12,14,10,35,4.00
2014,12,14,10,36,4.00
2014,12,14,10,37,4.10
2014,12,14,10,38,4.10
2014,12,14,10,39,4.10
2014,12,14,10,40,4.10
2014,12,14,10,41,4.10
2014,12,14,10,42,4.20
2014,12,14,10,43,4.20
2014,12,14,10,44,4.20
2014,12,14,10,45,4.20
2014,12,14,10,46,4.20
2014,12,14,10,47,4.20
2014,12,14,10,48,4.30
2014,12,14,10,49,4.30
2014,12,14,10,50,4.30
2014,12,14,10,51,4.30
2014,12,14,10,52,4.30
2014,12,14,10,53,4.40
2014,12,14,10,54,4.40
2014,12,14,10,55,4.40
2014,12,14,10,56,4.40
2014,12,14,10,57,4.40
2014,12,14,10,58,4.50
2014,12,14,10,59,4.50
2014,12,14,11,00,4.50
2014,12,14,11,01,4.60
2014,12,14,11,02,4.60
2014,12,14,11,03,4.60
2014,12,14,11,04,4.60
2014,12,14,11,05,4.70
2014,12,14,11,06,4.70
2014,12,14,11,07,4.70
2014,12,14,11,08,4.70
2014,12,14,11,09,4.80
2014,12,14,11,10,4.80
2014,12,14,11,11,4.80
2014,12,14,11,12,4.80
2014,12,14,11,13,4.90
2014,12,14,11,14,4.90
2014,12,14,11,15,4.90
2014,12,14,11,16,5.00
2014,12,14,11,17,5.00
2014,12,14,11,18,5.00
2014,12,14,11,19,5.10
2014,12,14,11,20,5.10
2014,12,14,11,21,5.20
2014,12,14,11,22,5.20
2014,12,14,11,23,5.20
2014,12,14,11,24,5.30
2014,12,14,11,25,5.30
2014,12,14,11,26,5.30
2014,12,14,11,27,5.30
2014,12,14,11,28,5.40
2014,12,14,11,29,5.40
2014,12,14,11,30,5.40
2014,12,14,11,31,5.40
2014,12,14,11,32,5.50
2014,12,14,11,33,5.50
2014,12,14,11,34,5.50
2014,12,14,11,35,5.50
2014,12,14,11,36,5.60
2014,12,14,11,37,5.60
2014,12,14,11,38,5.60
2014,12,14,11,39,5.60
2014,12,14,11,40,5.60
2014,12,14,11,41,5.60
2014,12,14,11,42,5.60
2014,12,14,11,43,5.60
2014,12,14,11,44,5.60
2014,12,14,11,45,5.60
2014,12,14,11,46,5.70
2014,12,14,11,47,5.70
2014,12,14,11,48,5.70
2014,12,14,11,49,5.70
2014,12,14,11,50,5.70
2014,12,14,11,51,5.70
2014,12,14,11,52,5.70
2014,12,14,11,53,5.70
2014,12,14,11,54,5.60
2014,12,14,11,55,5.70
2014,12,14,11,56,5.60
2014,12,14,11,57,5.60
2014,12,14,11,58,5.60
2014,12,14,11,59,5.60
2014,12,14,12,00,5.60
2014,12,14,12,01,5.70
2014,12,14,12,02,5.70
2014,12,14,12,03,5.70
2014,12,14,12,04,5.70
2014,12,14,12,05,5.70
2014,12,14,12,06,5.70
2014,12,14,12,07,5.80
2014,12,14,12,08,5.80
2014,12,14,12,09,5.80
2014,12,14,12,10,5.80
2014,12,14,12,11,5.80
2014,12,14,12,12,5.80
2014,12,14,12,13,5.80
2014,12,14,12,14,5.90
2014,12,14,12,15,5.90
2014,12,14,12,16,5.90
2014,12,14,12,17,5.90
2014,12,14,12,18,5.90
2014,12,14,12,19,5.90
2014,12,14,12,20,5.90
2014,12,14,12,21,5.90
2014,12,14,12,22,6.00
2014,12,14,12,23,6.00
2014,12,14,12,24,6.00
2014,12,14,12,25,6.00
2014,12,14,12,26,6.00
2014,12,14,12,27,6.00
2014,12,14,12,28,6.00
2014,12,14,12,29,6.00
2014,12,14,12,30,6.00
2014,12,14,12,31,6.10
2014,12,14,12,32,6.10
2014,12,14,12,33,6.10
2014,12,14,12,34,6.20
2014,12,14,12,35,6.20
2014,12,14,12,36,6.20
2014,12,14,12,37,6.20
2014,12,14,12,38,6.20
2014,12,14,12,39,6.30
2014,12,14,12,40,6.30
2014,12,14,12,41,6.30
2014,12,14,12,42,6.30
2014,12,14,12,43,6.30
2014,12,14,12,44,6.40
2014,12,14,12,45,6.40
2014,12,14,12,46,6.40
2014,12,14,12,47,6.40
2014,12,14,12,48,6.40
2014,12,14,12,49,6.40
2014,12,14,12,50,6.40
2014,12,14,12,51,6.40
2014,12,14,12,52,6.40
2014,12,14,12,53,6.40
2014,12,14,12,54,6.40
2014,12,14,12,55,6.40
2014,12,14,12,56,6.40
2014,12,14,12,57,6.40
2014,12,14,12,58,6.40
2014,12,14,12,59,6.50
2014,12,14,13,00,6.50
2014,12,14,13,01,6.50
2014,12,14,13,02,6.60
2014,12,14,13,03,6.60
2014,12,14,13,04,6.60
2014,12,14,13,05,6.60
2014,12,14,13,06,6.60
2014,12,14,13,07,6.60
2014,12,14,13,08,6.60
2014,12,14,13,09,6.60
2014,12,14,13,10,6.70
2014,12,14,13,11,6.70
2014,12,14,13,12,6.70
2014,12,14,13,13,6.70
2014,12,14,13,14,6.70
2014,12,14,13,15,6.70
2014,12,14,13,16,6.70
2014,12,14,13,17,6.70
2014,12,14,13,18,6.70
2014,12,14,13,19,6.70
2014,12,14,13,20,6.70
2014,12,14,13,21,6.70
2014,12,14,13,22,6.70
2014,12,14,13,23,6.70
2014,12,14,13,24,6.70
2014,12,14,13,25,6.70
2014,12,14,13,26,6.70
2014,12,14,13,27,6.70
2014,12,14,13,28,6.70
2014,12,14,13,29,6.70
2014,12,14,13,30,6.70
2014,12,14,13,31,6.70
2014,12,14,13,32,6.70
2014,12,14,13,33,6.70
2014,12,14,13,34,6.70
2014,12,14,13,35,6.70
2014,12,14,13,36,6.80
2014,12,14,13,37,6.80
2014,12,14,13,38,6.80
2014,12,14,13,39,6.80
2014,12,14,13,40,6.80
2014,12,14,13,41,6.80
2014,12,14,13,42,6.80
2014,12,14,13,43,6.80
2014,12,14,13,44,6.80
2014,12,14,13,45,6.80
2014,12,14,13,46,6.90
2014,12,14,13,47,6.90
2014,12,14,13,48,6.90
2014,12,14,13,49,6.90
2014,12,14,13,50,6.90
2014,12,14,13,51,6.90
2014,12,14,13,52,6.90
2014,12,14,13,53,6.90
2014,12,14,13,54,6.90
2014,12,14,13,55,6.90
2014,12,14,13,56,6.90
2014,12,14,13,57,6.90
2014,12,14,13,58,6.90
2014,12,14,13,59,6.90
2014,12,14,14,00,6.90
2014,12,14,14,01,6.90
2014,12,14,14,02,6.90
2014,12,14,14,03,6.90
2014,12,14,14,04,6.90
2014,12,14,14,05,6.90
2014,12,14,14,06,6.90
2014,12,14,14,07,6.90
2014,12,14,14,08,6.90
2014,12,14,14,09,6.90
2014,12,14,14,10,6.90
2014,12,14,14,11,6.90
2014,12,14,14,12,6.90
2014,12,14,14,13,6.90
2014,12,14,14,14,6.90
2014,12,14,14,15,7.00
2014,12,14,14,16,7.00
2014,12,14,14,17,7.00
2014,12,14,14,18,7.00
2014,12,14,14,19,7.00
2014,12,14,14,20,7.00
2014,12,14,14,21,7.00
2014,12,14,14,22,7.00
2014,12,14,14,23,7.00
2014,12,14,14,24,7.00
2014,12,14,14,25,7.00
2014,12,14,14,26,7.00
2014,12,14,14,27,7.00
2014,12,14,14,28,7.00
2014,12,14,14,29,7.10
2014,12,14,14,30,7.10
2014,12,14,14,31,7.10
2014,12,14,14,32,7.10
2014,12,14,14,33,7.10
2014,12,14,14,34,7.10
2014,12,14,14,35,7.10
2014,12,14,14,36,7.10
2014,12,14,14,37,7.10
2014,12,14,14,38,7.10
2014,12,14,14,39,7.10
2014,12,14,14,40,7.10
2014,12,14,14,41,7.10
2014,12,14,14,42,7.10
2014,12,14,14,43,7.10
2014,12,14,14,44,7.10
2014,12,14,14,45,7.10
2014,12,14,14,46,7.20
2014,12,14,14,47,7.20
2014,12,14,14,48,7.20
2014,12,14,14,49,7.20
2014,12,14,14,50,7.20
2014,12,14,14,51,7.20
2014,12,14,14,52,7.20
2014,12,14,14,53,7.20
2014,12,14,14,54,7.20
2014,12,14,14,55,7.20
2014,12,14,14,56,7.20
2014,12,14,14,57,7.10
2014,12,14,14,58,7.10
2014,12,14,14,59,7.10
2014,12,14,15,00,7.10
2014,12,14,15,01,7.10
2014,12,14,15,02,7.10
2014,12,14,15,03,7.10
2014,12,14,15,04,7.10
2014,12,14,15,05,7.10
2014,12,14,15,06,7.10
2014,12,14,15,07,7.10
2014,12,14,15,08,7.10
2014,12,14,15,09,7.00
2014,12,14,15,10,7.00
2014,12,14,15,11,7.00
2014,12,14,15,12,7.00
2014,12,14,15,13,7.00
2014,12,14,15,14,7.00
2014,12,14,15,15,7.00
2014,12,14,15,16,7.00
2014,12,14,15,17,7.00
2014,12,14,15,18,7.00
2014,12,14,15,19,7.00
2014,12,14,15,20,7.00
2014,12,14,15,21,7.00
2014,12,14,15,22,7.00
2014,12,14,15,23,7.00
2014,12,14,15,24,7.00
2014,12,14,15,25,7.00
2014,12,14,15,26,7.00
2014,12,14,15,27,7.00
2014,12,14,15,28,7.00
2014,12,14,15,29,6.90
2014,12,14,15,30,6.90
2014,12,14,15,31,6.90
2014,12,14,15,32,6.90
2014,12,14,15,33,6.80
2014,12,14,15,34,6.80
2014,12,14,15,35,6.70
2014,12,14,15,36,6.70
2014,12,14,15,37,6.70
2014,12,14,15,38,6.60
2014,12,14,15,39,6.60
2014,12,14,15,40,6.50
2014,12,14,15,41,6.50
2014,12,14,15,42,6.40
2014,12,14,15,43,6.40
2014,12,14,15,44,6.30
2014,12,14,15,45,6.30
2014,12,14,15,46,6.20
2014,12,14,15,47,6.20
2014,12,14,15,48,6.10
2014,12,14,15,49,6.10
2014,12,14,15,50,6.00
2014,12,14,15,51,6.00
2014,12,14,15,52,5.90
2014,12,14,15,53,5.90
2014,12,14,15,54,5.90
2014,12,14,15,55,5.80
2014,12,14,15,56,5.80
2014,12,14,15,57,5.70
2014,12,14,15,58,5.70
2014,12,14,15,59,5.60
2014,12,14,16,00,5.60
2014,12,14,16,01,5.50
2014,12,14,16,02,5.50
2014,12,14,16,03,5.40
2014,12,14,16,04,5.40
2014,12,14,16,05,5.30
2014,12,14,16,06,5.30
2014,12,14,16,07,5.20
2014,12,14,16,08,5.20
2014,12,14,16,09,5.10
2014,12,14,16,10,5.10
2014,12,14,16,11,5.10
2014,12,14,16,12,5.00
2014,12,14,16,13,5.00
2014,12,14,16,14,4.90
2014,12,14,16,15,4.90
2014,12,14,16,16,4.90
2014,12,14,16,17,4.90
2014,12,14,16,18,4.80
2014,12,14,16,19,4.80
2014,12,14,16,20,4.80
2014,12,14,16,21,4.70
2014,12,14,16,22,4.70
2014,12,14,16,23,4.60
2014,12,14,16,24,4.60
2014,12,14,16,25,4.60
2014,12,14,16,26,4.50
2014,12,14,16,27,4.50
2014,12,14,16,28,4.50
2014,12,14,16,29,4.40
2014,12,14,16,30,4.40
2014,12,14,16,31,4.40
2014,12,14,16,32,4.30
2014,12,14,16,33,4.30
2014,12,14,16,34,4.30
2014,12,14,16,35,4.30
2014,12,14,16,36,4.20
2014,12,14,16,37,4.20
2014,12,14,16,38,4.20
2014,12,14,16,39,4.10
2014,12,14,16,40,4.10
2014,12,14,16,41,4.10
2014,12,14,16,42,4.00
2014,12,14,16,43,4.00
2014,12,14,16,44,3.90
2014,12,14,16,45,3.90
2014,12,14,16,46,3.90
2014,12,14,16,47,3.80
2014,12,14,16,48,3.80
2014,12,14,16,49,3.80
2014,12,14,16,50,3.80
2014,12,14,16,51,3.70
2014,12,14,16,52,3.70
2014,12,14,16,53,3.70
2014,12,14,16,54,3.70
2014,12,14,16,55,3.70
2014,12,14,16,56,3.60
2014,12,14,16,57,3.60
2014,12,14,16,58,3.60
2014,12,14,16,59,3.50
2014,12,14,17,00,3.50
2014,12,14,17,01,3.40
2014,12,14,17,02,3.40
2014,12,14,17,03,3.40
2014,12,14,17,04,3.30
2014,12,14,17,05,3.30
2014,12,14,17,06,3.30
2014,12,14,17,07,3.30
2014,12,14,17,08,3.30
2014,12,14,17,09,3.30
2014,12,14,17,10,3.30
2014,12,14,17,11,3.20
2014,12,14,17,12,3.20
2014,12,14,17,13,3.20
2014,12,14,17,14,3.20
2014,12,14,17,15,3.20
2014,12,14,17,16,3.20
2014,12,14,17,17,3.20
2014,12,14,17,18,3.10
2014,12,14,17,19,3.10
2014,12,14,17,20,3.10
2014,12,14,17,21,3.10
2014,12,14,17,22,3.00
2014,12,14,17,23,3.00
2014,12,14,17,24,3.00
2014,12,14,17,25,3.00
2014,12,14,17,26,2.90
2014,12,14,17,27,2.90
2014,12,14,17,28,2.90
2014,12,14,17,29,2.90
2014,12,14,17,30,2.90
2014,12,14,17,31,2.80
2014,12,14,17,32,2.80
2014,12,14,17,33,2.80
2014,12,14,17,34,2.80
2014,12,14,17,35,2.80
2014,12,14,17,36,2.80
2014,12,14,17,37,2.70
2014,12,14,17,38,2.70
2014,12,14,17,39,2.70
2014,12,14,17,40,2.70
2014,12,14,17,41,2.70
2014,12,14,17,42,2.60
2014,12,14,17,43,2.60
2014,12,14,17,44,2.60
2014,12,14,17,45,2.60
2014,12,14,17,46,2.60
2014,12,14,17,47,2.60
2014,12,14,17,48,2.60
2014,12,14,17,49,2.50
2014,12,14,17,50,2.50
2014,12,14,17,51,2.50
2014,12,14,17,52,2.50
2014,12,14,17,53,2.40
2014,12,14,17,54,2.40
2014,12,14,17,55,2.40
2014,12,14,17,56,2.40
2014,12,14,17,57,2.40
2014,12,14,17,58,2.40
2014,12,14,17,59,2.40
2014,12,14,18,00,2.40
2014,12,14,18,01,2.40
2014,12,14,18,02,2.30
2014,12,14,18,03,2.30
2014,12,14,18,04,2.30
2014,12,14,18,05,2.30
2014,12,14,18,06,2.30